Погода в Бакшееве

Россия / Омская область     57°23′55″N   72°59′18″E
темп.,
°C
ветер,
м/с
пор.,
м/с
влажн.,
%
обл.,
%
осадки,
мм/ч
давл.,
гПа
погр.,
м
16 апреля, пт
пт1600:00+10зюз3119112 0.0 1013239
03:00+10зюз311935 0.0 1012273
06:00+8сз2797100 0.0 1013247
09:00+6ссз4992100 0.8 1015727
12:00+4ссз4995100 1.3 1018625
15:00+7ссз696099 0.4 10201791
18:00+4с586356 0.5 10231518
21:00−1ссв48674 0.1 1026652
17 апреля, сб
сб1700:00−3ссв26722 0.1 1027493
03:00−4с11775 0.0 102768
06:00−4зюз127799 0.0 1027197
09:00−1зюз2453100 0.0 1026587
12:00+3зюз354265 0.0 10241253
15:00+6зюз4739100 0.0 10212044
18:00+5юз4952100 0.0 10181140
21:00+3юз41166100 0.0 1016483
18 апреля, вс
вс1800:00+3з41076100 0.1 1014785
03:00+2з3776100 0.1 1012343
06:00+1з1291100 0.2 101137
09:000всв3596100 2.1 1009342
12:00−3ссв61088100 6.7 1012894
15:00−3ссв61059100 0.9 10171309
18:00−3с6105464 0.9 10201674
21:00−8с611605 0.0 10251004
19 апреля, пн
пн1900:00−9с596950 0.0 10281064
03:00−10ссз496750 0.0 1030999
06:00−10ссз496899 0.0 10311192
09:00−8ссз5755100 0.0 10331543
12:00−5ссз5749100 0.1 10341800
15:00−2ссз4643100 0.0 10341999
18:00−2ссз4641100 0.0 10341840
21:00−7зсз117778 0.0 103410
20 апреля, вт
вт2000:00−7зсз138471 0.0 103554
03:00−8з138599 0.0 103450
06:00−7зюз287889 0.0 1033223
09:00−2зюз41054100 0.0 1031567
12:00+2з51046100 0.0 10281408
15:00+5з51150100 0.0 10261462
18:00+4зсз51260100 0.0 10251419
21:00+4зсз5136891 0.0 1024707